FW2250 Weather Reports


time (UTC)temp
C
wind
direction
speed
KPH
gust
KPH
rain 1hr
cm
rain 24hr
cm
rain mn
cm
humidity
%
barometer
mb
20260503071506 20 123 0.0 1.6 0.00 0.08 0.03 100 1019.5
20260503060104 21 123 0.0 4.8 0.03 0.08 0.03 100 1020.0
20260503054602 20 123 0.0 3.2 0.00 0.05 0.00 100 1020.2
20260503053056 20 123 0.0 0.0 0.00 0.05 0.00 100 1020.3
20260503051553 21 123 0.0 0.0 0.00 0.05 0.00 100 1020.3
20260503050052 21 123 0.0 0.0 0.00 0.05 0.00 100 1020.5
20260503044554 21 123 0.0 0.0 0.00 0.05 0.00 100 1020.5
20260503043050 21 123 0.0 0.0 0.00 0.05 0.00 100 1020.6
20260503041545 21 123 0.0 1.6 0.00 0.05 0.00 100 1020.7
20260503040041 21 123 0.0 1.6 0.00 0.05 0.00 100 1020.8
20260503034539 21 123 0.0 0.0 0.00 0.05 0.05 100 1021.0
20260503033038 22 123 0.0 0.0 0.00 0.05 0.05 100 1020.9
20260503031537 22 123 0.0 0.0 0.00 0.05 0.05 100 1020.8
20260503030035 22 123 0.0 0.0 0.00 0.05 0.05 100 1020.7
20260503024535 22 123 0.0 0.0 0.00 0.13 0.05 100 1020.7
20260503023034 22 123 0.0 0.0 0.00 0.13 0.05 100 1020.6
20260503021534 23 123 0.0 1.6 0.00 0.13 0.05 100 1020.5
20260503020034 23 123 0.0 6.4 0.00 0.13 0.05 100 1020.4
20260503014531 23 123 0.0 0.0 0.00 0.23 0.05 100 1020.0
20260503013031 23 123 0.0 3.2 0.00 0.23 0.05 100 1019.8
20260503011536 23 123 0.0 0.0 0.00 0.23 0.05 100 1019.7
20260503010035 24 123 0.0 3.2 0.00 0.23 0.05 98 1019.5
20260503004529 24 123 0.0 6.4 0.00 0.30 0.05 99 1019.2
20260503003028 24 123 0.0 3.2 0.00 0.30 0.05 100 1019.0
20260503001528 23 123 0.0 1.6 0.00 0.30 0.05 100 1018.9
20260503000041 23 123 0.0 1.6 0.00 0.30 0.05 100 1018.8
20260502234526 24 123 0.0 3.2 0.00 0.51 0.05 100 1018.5
20260502233025 24 123 0.0 1.6 0.00 0.51 0.05 100 1018.3
20260502231532 24 123 0.0 1.6 0.00 0.51 0.05 100 1018.1
20260502230025 25 123 0.0 1.6 0.00 0.51 0.05 100 1018.1
20260502224526 25 123 0.0 0.0 0.00 0.00 0.05 98 1017.9
20260502223028 26 123 1.6 4.8 0.00 0.51 0.05 96 1017.7
20260502221523 26 123 0.0 6.4 0.00 0.51 0.05 96 1017.5
20260502220023 26 123 1.6 9.7 0.00 0.51 0.05 96 1017.6
20260502214522 26 123 1.6 11.3 0.00 0.51 0.05 96 1017.5
20260502213021 26 123 1.6 12.9 0.00 0.51 0.05 96 1017.3
20260502211529 27 123 3.2 12.9 0.00 0.51 0.05 96 1017.2
20260502210021 28 123 4.8 20.9 0.00 0.51 0.05 91 1017.1
20260502204522 31 123 8.0 20.9 0.03 0.51 0.05 80 1017.1
20260502203018 29 123 6.4 19.3 0.03 0.51 0.05 86 1017.1
20260502201518 28 123 4.8 16.1 0.03 0.51 0.05 89 1017.2
20260502200018 28 123 4.8 22.5 0.03 0.51 0.05 89 1017.3
20260502194517 27 123 4.8 16.1 0.03 0.48 0.03 89 1017.3
20260502193016 28 123 1.6 14.5 0.03 0.48 0.03 88 1017.4
20260502191515 28 123 0.0 14.5 0.03 0.48 0.03 88 1017.3
20260502190015 28 123 1.6 14.5 0.03 0.48 0.03 87 1017.4
20260502184515 30 123 1.6 16.1 0.00 0.46 0.00 82 1017.5
20260502183014 30 123 3.2 16.1 0.00 0.46 0.00 83 1017.5
20260502181512 31 123 6.4 20.9 0.00 0.46 0.00 79 1017.6
20260502163100 33 123 3.2 12.9 0.00 0.46 0.00 73 1018.9
20260502161659 31 123 4.8 17.7 0.00 0.46 0.00 78 1019.2
20260502151605 36 123 3.2 22.5 0.00 0.46 0.00 67 1019.8
20260502123015 30 123 4.8 9.7 0.00 0.46 0.00 76 1019.6
20260502121513 -17 0.0 0.0 0.00 0.46 0.00 1019.4
20260502114502 -17 0.0 0.0 0.00 0.46 0.00 1019.2
20260502113058 -17 0.0 0.0 0.00 0.46 0.00 1019.0
20260502111553 -17 0.0 0.0 0.00 0.46 0.00 1018.9
20260502110058 -17 0.0 0.0 0.00 0.46 0.00 1018.7
20260502104544 -17 0.0 0.0 0.00 0.46 0.00 1018.7
20260502103040 -17 0.0 0.0 0.00 0.46 0.00 1018.5
20260502101535 -17 0.0 0.0 0.00 0.46 0.00 1018.4
20260502091518 -17 0.0 0.0 0.00 0.46 0.00 1017.7